Location: Unspecified
(0.0000°N, 0.0000°E)
Time: 13:20:06
(UTC+00:00)

A-11 Canister half - All Passes

Search period start: 01 November 2014 00:00
Search period end: 11 November 2014 00:00
Orbit: 1525 x 1685 km, 47.3° (Epoch: 30 October)

Date Brightness Start Highest point End Pass type
(mag) Time Alt. Az. Time Alt. Az. Time Alt. Az.
01 Nov - 02:48:00 10° S 02:54:04 17° SE 03:00:01 10° E visible
01 Nov - 04:49:20 10° SW 04:59:30 85° SE 05:09:21 10° NE visible
01 Nov - 06:58:05 10° W 07:04:37 19° NW 07:11:03 10° N daylight
01 Nov - 15:37:22 10° NNW 15:45:41 37° NE 15:54:08 10° ESE daylight
01 Nov - 17:41:40 10° WNW 17:50:28 46° SW 17:59:35 10° SSE daylight
02 Nov - 02:26:53 10° S 02:32:26 16° SE 02:37:55 10° E visible
02 Nov - 04:27:47 10° SW 04:37:57 81° SE 04:47:48 10° NE visible
02 Nov - 06:36:05 10° W 06:43:02 21° NW 06:49:52 10° N daylight
02 Nov - 15:16:01 10° NNW 15:24:09 34° NE 15:32:23 10° ESE daylight
02 Nov - 17:20:02 10° WNW 17:28:56 50° SW 17:38:08 10° SSE daylight
03 Nov - 02:05:50 10° SSE 02:10:48 15° SE 02:15:43 10° ESE visible
03 Nov - 04:06:14 10° SW 04:16:23 76° SE 04:26:15 10° NE visible
03 Nov - 06:14:07 10° W 06:21:27 23° NW 06:28:39 10° N daylight
03 Nov - 14:54:41 10° N 15:02:37 32° NE 15:10:38 10° ESE daylight
03 Nov - 16:58:25 10° NW 17:07:24 53° SW 17:16:40 10° SSE daylight
04 Nov - 01:44:53 10° SSE 01:49:10 13° SE 01:53:25 10° ESE visible
04 Nov - 03:44:43 10° SSW 03:54:50 71° SE 04:04:41 10° NE visible
04 Nov - 05:52:12 10° W 05:59:52 25° NW 06:07:24 10° N daylight
04 Nov - 14:33:22 10° N 14:41:04 29° NE 14:48:51 10° ESE daylight
04 Nov - 16:36:49 10° NW 16:45:52 57° SW 16:55:12 10° SSE daylight
05 Nov - 01:24:06 10° SSE 01:27:31 12° SE 01:30:55 10° ESE visible
05 Nov - 03:23:12 10° SSW 03:33:16 67° SE 03:43:06 10° NE visible
05 Nov - 05:30:19 10° WSW 05:38:17 27° NW 05:46:08 10° N daylight
05 Nov - 14:12:04 10° N 14:19:32 27° NE 14:27:02 10° ESE daylight
05 Nov - 16:15:14 10° NW 16:24:21 61° SW 16:33:44 10° SSE daylight
06 Nov - 01:03:41 10° SSE 01:05:52 11° SE 01:08:02 10° SE visible
06 Nov - 03:01:41 10° SSW 03:11:43 63° SE 03:21:30 10° NE visible
06 Nov - 05:08:27 10° WSW 05:16:43 29° NW 05:24:50 10° N visible
06 Nov - 13:50:47 10° N 13:57:59 25° NE 14:05:13 10° E daylight
06 Nov - 15:53:40 10° NW 16:02:50 66° SW 16:12:15 10° SSE daylight
06 Nov - 18:06:35 10° SW 18:08:27 11° SW 18:10:20 10° SSW visible
07 Nov - 02:40:12 10° SSW 02:50:09 59° SE 02:59:53 10° NE visible
07 Nov - 04:46:38 10° WSW 04:55:08 31° NW 05:03:30 10° N visible
07 Nov - 13:29:32 10° N 13:36:26 23° NE 13:43:21 10° E daylight
07 Nov - 15:32:06 10° NW 15:41:18 70° SW 15:50:45 10° SSE daylight
07 Nov - 17:43:45 10° WSW 17:46:50 12° SW 17:49:56 10° SSW daylight
08 Nov - 02:18:43 10° SSW 02:28:35 55° SE 02:38:16 10° NE visible
08 Nov - 04:24:49 10° WSW 04:33:34 34° NW 04:42:10 10° NNE visible
08 Nov - 13:08:18 10° N 13:14:53 21° NE 13:21:28 10° E daylight
08 Nov - 15:10:33 10° NW 15:19:47 75° SW 15:29:15 10° SE daylight
08 Nov - 17:21:20 10° WSW 17:25:13 13° SW 17:29:09 10° SSW daylight
09 Nov - 01:57:15 10° SSW 02:07:01 51° SE 02:16:37 10° ENE visible
09 Nov - 04:03:02 10° WSW 04:11:59 36° NW 04:20:48 10° NNE visible
09 Nov - 12:47:06 10° N 12:53:19 20° NE 12:59:32 10° E daylight
09 Nov - 14:49:01 10° NW 14:58:17 80° SW 15:07:44 10° SE daylight
09 Nov - 16:59:05 10° WSW 17:03:37 14° SW 17:08:12 10° SSW daylight
10 Nov - 01:35:47 10° SSW 01:45:27 48° SE 01:54:57 10° ENE visible
10 Nov - 03:41:17 10° WSW 03:50:25 39° NW 03:59:26 10° NNE visible
10 Nov - 12:25:56 10° N 12:31:45 18° NE 12:37:33 10° E daylight
10 Nov - 14:27:29 10° NW 14:36:46 85° SW 14:46:13 10° SE daylight
10 Nov - 16:36:57 10° W 16:42:01 16° SW 16:47:10 10° SSW daylight
